Regional Weather Roundup
Issued by NWS

Home | Current Version | Previous Version | Graphics & Text | Print | Product List | Glossary On
Versions: 1 2 3 4 5 6 7 8 9 10 11 12 13 14 15 16 17 18 19 20 21 22 23 24 25 26 27 28 29 30 31 32 33 34 35 36 37 38 39 40 41 42 43 44 45 46 47 48 49 50
000
ASUS43 KLMK 180210
RWRKY
KENTUCKY REGIONAL WEATHER ROUNDUP
NATIONAL WEATHER SERVICE LOUISVILLE KY
1000 PM EDT THU APR 17 2014

NOTE "FAIR" INDICATES FEW OR NO CLOUDS BELOW 12,000 FEET
WITH NO SIGNIFICANT WEATHER AND/OR OBSTRUCTIONS TO VISIBILITY.

KYZ001>023-026-027-061>063-070>075-180300-
WESTERN AND SOUTH CENTRAL KENTUCKY

CITY           SKY/WX    TMP DP  RH WIND       PRES   REMARKS
PADUCAH        CLEAR     56  43  61 SW3       30.25R
HENDERSON      CLEAR     52  41  66 S5        30.25R
OWENSBORO      CLEAR     58  39  49 SE5       30.26R
HOPKINSVILLE   PTCLDY    59  39  47 E3        30.25R
BOWLING GREEN  CLEAR     55  35  47 CALM      30.27R
GLASGOW        PTCLDY    53  34  48 CALM      30.27R
$$

KYZ024-025-028>034-038-045-046-053-180300-
NORTH CENTRAL KENTUCKY

CITY           SKY/WX    TMP DP  RH WIND       PRES   REMARKS
LOUISVILLE/SDF PTCLDY    62  31  31 CALM      30.27R
LOUISVILLE/LOU CLEAR     59  37  44 W5        30.28R
FORT KNOX      CLEAR     56  34  42 CALM      30.26R
$$

KYZ035>037-039>044-047>052-055>060-089>105-180300-
NORTHEAST KENTUCKY

CITY           SKY/WX    TMP DP  RH WIND       PRES   REMARKS
LEXINGTON      CLEAR     57  32  38 E3        30.28S
COVINGTON      CLEAR     55  35  47 CALM      30.29R
FRANKFORT      CLEAR     50  39  66 CALM      30.27S
$$

KYZ054-064>069-076>088-106>120-180300-
SOUTHEAST KENTUCKY

CITY           SKY/WX    TMP DP  RH WIND       PRES   REMARKS
JACKSON        CLEAR     63  18  17 CALM      30.29R
LONDON         CLEAR     57  30  35 CALM      30.30R
SOMERSET       CLEAR     59  28  31 S3        30.31R
MIDDLESBORO    CLEAR     50  35  55 CALM      30.32R
MONTICELLO     CLEAR     43  37  79 CALM      30.31R
$$




USA.gov is the U.S. government's official web portal to all federal, state and local government web resources and services.